RH
84 91 96 98 96 98 100 99 99 98 98 99 100 98 98 98 97 100 98 98 98 99 98 97 96 97 97 97 91 95 82 74 83 86 86 83 82 85 76 78 80 88 93
95 98 99 98 98 96 97 98 98 99 99 99 100 100 100 100 99 98 100 100 99 100 99 98 99 100 97 94 93 90 94 76 79 72 72 66 67 87 85 73 78 89 93
98 98 100 97 95 94 93 94 94 94 95 97 98 99 100 100 100 100 100 100 100 100 100 100 98 98 99 99 98 100 95 90 75 82 81 82 79 78 89 85 77 96 96
95 98 96 97 95 94 93 91 90 90 92 92 94 96 97 98 99 100 100 100 100 99 99 99 99 99 100 98 99 97 99 93 78 69 78 82 78 80 82 86 97 95 95
92 92 97 96 94 90 90 88 86 86 87 88 90 91 92 93 96 96 96 99 100 99 100 100 100 100 99 95 98 91 95 97 89 81 84 85 85 83 86 81 75 66 74
89 90 96 94 90 88 88 87 84 84 85 86 87 88 90 90 91 93 94 99 98 99 99 100 97 99 99 98 92 91 93 96 92 88 90 88 87 87 93 77 65 62 61
86 88 90 89 87 85 86 87 85 84 85 85 87 86 87 88 90 91 92 94 93 95 95 96 93 94 95 90 90 91 94 94 94 94 94 93 98 94 90 85 79 75 67
83 82 83 82 82 81 83 84 84 84 84 84 85 86 86 86 87 90 89 89 89 89 88 88 86 86 87 86 83 90 92 89 91 92 92 97 100 100 98 93 86 82 80
76 79 78 79 79 80 82 83 82 82 81 82 81 83 89 84 86 87 85 85 86 87 86 84 81 77 78 77 71 84 92 87 83 86 86 91 99 100 99 99 99 92 82
66 69 74 74 76 76 79 81 78 79 78 77 74 51 49 57 75 82 75 80 82 82 83 81 75 63 44 46 28 66 76 84 78 76 81 89 99 100 99 95 98 98 99
52 55 67 68 68 70 74 77 74 75 74 64 47 18 14 18 27 36 72 74 74 76 78 77 68 33 10 9 10 16 34 51 61 67 73 80 89 94 98 99 94 96 98
39 44 48 57 60 62 60 45 29 21 18 18 18 17 17 17 18 19 18 17 20 15 23 26 17 12 10 10 10 10 14 21 32 43 56 68 81 88 88 87 89 93 95
31 31 31 31 44 45 23 20 21 21 21 21 21 20 18 18 19 19 18 16 14 14 13 14 12 12 11 11 12 12 12 12 14 18 21 36 71 79 83 85 83 85 89
34 30 29 29 28 26 23 23 24 25 26 25 24 23 20 19 19 19 19 21 19 20 18 15 14 15 14 13 13 14 13 11 11 11 11 20 62 71 74 80 84 83 83
36 33 30 30 28 27 26 24 26 28 28 28 28 26 22 21 21 22 23 23 23 22 22 20 17 14 13 14 16 16 15 13 12 12 11 10 51 71 75 81 83 86 86
36 33 31 31 28 26 25 26 27 29 30 29 28 26 24 22 23 23 24 25 25 27 28 26 24 21 18 15 17 19 19 17 18 19 24 23 78 81 89 92 97 96 94
36 33 32 31 29 25 25 26 27 28 28 27 28 29 27 27 26 26 27 28 31 28 26 25 24 21 18 20 25 23 22 27 32 34 40 41 40 61 89 93 95 95 99
37 34 32 31 28 27 28 29 30 31 32 33 35 34 34 32 30 28 28 30 34 33 34 33 30 26 22 21 27 32 40 47 41 38 41 40 36 38 53 75 80 82 89
36 34 34 31 29 30 32 32 34 35 36 39 38 38 39 38 36 33 35 37 36 35 34 36 35 36 30 26 29 38 41 39 40 37 37 30 28 30 26 25 30 40 70
38 35 34 33 31 32 35 35 38 38 37 38 36 38 40 38 37 38 42 45 47 46 46 47 48 46 40 33 33 45 49 43 41 37 41 29 31 29 26 26 22 18 18
41 38 35 34 33 33 36 37 38 36 36 36 37 41 41 40 39 40 41 46 48 49 53 54 56 58 54 42 37 34 45 55 54 41 42 36 32 32 34 29 26 23 19
46 40 37 34 33 31 32 34 32 33 36 36 41 42 41 40 39 39 41 47 48 50 54 57 59 60 62 58 62 64 65 48 44 48 48 44 40 35 35 30 30 30 26
50 49 39 34 32 32 32 30 30 33 37 41 42 42 41 41 40 41 46 47 48 52 54 58 59 60 65 63 63 58 59 69 72 52 48 47 42 36 41 36 32 32 29
51 47 39 34 32 33 30 26 24 28 35 35 38 40 40 40 41 44 46 47 50 53 54 57 60 61 61 67 66 64 65 66 77 72 52 52 51 43 41 39 36 34 36
52 50 39 36 34 32 29 26 26 26 26 34 38 39 40 41 44 47 47 49 49 51 55 59 60 62 64 66 69 73 73 72 74 81 79 72 65 54 49 40 34 34 36
53 48 41 38 38 34 32 29 25 25 30 34 38 38 41 43 46 48 51 50 52 55 58 62 65 65 66 68 68 70 72 73 76 76 89 78 80 69 61 47 43 39 39
Wind_Speed
17 15 15 10 9 9 11 14 14 12 13 14 15 15 17 17 15 19 20 22 24 24 21 18 12 12 13 13 13 13 13 14 14 15 15 14 12 11 12 12 13 13 14
20 18 12 11 10 11 12 13 13 14 14 14 13 15 15 17 19 17 18 19 21 21 23 21 22 24 13 11 11 12 12 12 12 13 13 12 11 11 9 11 11 11 12
17 19 17 12 12 11 9 10 12 14 14 14 14 12 13 17 18 18 18 19 20 21 20 20 21 22 20 21 17 13 11 11 11 11 11 11 10 11 10 9 9 9 9
19 19 17 13 13 13 13 14 14 13 14 15 15 15 16 15 17 17 19 19 20 20 20 19 19 19 20 20 19 13 12 10 10 10 10 10 7 7 7 7 8 8 7
20 20 15 14 13 13 13 14 14 14 13 14 15 14 15 16 16 18 19 19 20 20 20 19 19 18 18 10 12 10 9 11 9 11 11 12 11 7 6 6 6 6 5
22 20 15 15 15 14 14 14 15 13 13 14 15 14 15 16 17 18 18 18 19 18 19 18 18 17 18 13 7 8 11 10 11 12 12 13 13 7 4 4 5 5 5
22 21 18 15 16 15 15 14 14 14 13 14 15 14 15 16 16 17 17 17 18 17 19 18 17 17 18 11 5 6 11 11 12 14 13 16 19 12 5 2 3 3 3
23 22 20 15 16 16 16 15 15 15 14 14 14 15 15 15 16 16 17 17 18 18 19 17 17 17 18 17 12 11 12 11 10 13 14 15 20 20 15 4 1 1 1
23 22 22 21 18 16 16 16 15 16 16 15 15 16 15 16 16 17 16 18 19 19 17 16 17 16 17 17 14 12 11 10 11 12 12 14 19 18 18 20 12 5 1
23 22 23 22 21 21 18 15 15 16 16 16 15 14 13 13 16 15 16 17 17 17 17 17 18 15 15 16 14 13 12 8 8 10 11 14 16 15 14 9 11 16 12
21 21 22 21 21 21 21 17 16 15 16 16 15 14 13 12 11 13 15 16 16 17 17 18 17 14 11 11 11 10 8 8 7 7 7 13 15 15 14 14 5 6 10
23 22 21 21 21 20 18 14 13 14 14 14 14 13 13 12 13 12 13 12 14 14 15 14 14 12 11 10 9 8 9 7 6 5 5 9 13 13 13 12 10 7 3
26 23 22 22 20 18 15 14 13 13 13 14 13 12 12 12 12 13 13 13 12 13 13 13 13 13 13 12 11 10 9 7 5 4 5 9 13 13 13 12 12 9 3
30 26 24 22 20 18 16 14 13 13 12 13 12 12 10 12 12 13 14 14 14 15 14 14 14 14 14 13 12 10 10 8 6 4 5 8 12 13 12 12 11 12 11
31 28 26 25 22 20 17 15 14 13 12 13 12 12 11 12 13 13 14 14 15 14 15 15 15 14 13 13 12 11 10 9 7 6 6 8 13 15 15 14 13 12 11
33 29 27 25 23 21 18 16 15 13 12 11 11 11 10 11 12 13 13 14 14 15 15 15 16 15 14 14 12 11 12 9 8 8 9 9 15 17 16 16 16 16 15
36 33 29 26 23 21 19 17 15 13 12 11 10 10 9 10 11 12 13 14 15 14 13 14 15 14 14 15 13 13 10 9 10 11 11 10 10 15 19 16 16 17 17
36 34 29 27 24 22 20 18 16 14 13 12 10 10 10 10 10 11 11 13 13 13 14 15 16 15 17 16 14 14 11 12 13 13 13 12 13 11 12 15 16 17 17
40 37 33 29 27 24 21 19 17 16 14 13 10 10 10 10 10 10 11 11 12 13 14 16 16 16 20 17 13 12 11 12 14 13 14 14 13 13 12 10 10 12 15
38 37 33 30 26 25 23 20 18 15 14 13 11 10 10 9 8 8 9 10 10 11 12 14 14 14 19 17 12 8 9 10 14 13 12 17 14 15 14 13 13 12 11
37 38 36 33 30 29 27 25 20 18 14 12 10 12 10 8 7 7 7 8 9 10 11 11 12 12 17 17 9 6 6 2 5 10 8 11 15 18 14 15 16 15 13
37 40 38 36 33 29 27 24 20 19 13 12 12 11 8 5 5 5 5 6 7 8 8 10 11 11 13 17 8 3 3 3 4 7 4 9 14 20 14 18 16 17 15
33 36 40 37 34 29 25 21 19 15 16 14 12 9 6 4 4 4 5 5 6 7 8 8 10 11 11 12 14 8 2 2 7 5 6 10 12 22 14 18 19 15 15
30 36 39 36 33 29 25 23 24 20 18 14 13 9 5 3 3 3 3 4 5 5 6 7 7 8 8 8 5 9 5 1 2 4 5 13 12 22 14 16 18 14 12
28 34 39 36 33 29 26 23 21 18 14 15 11 8 5 3 2 1 2 3 4 5 5 6 6 6 7 5 4 3 2 3 5 4 3 10 21 18 15 24 14 12 13
27 31 36 35 32 28 25 21 18 16 15 13 10 7 5 3 2 1 2 4 4 5 5 5 6 7 8 7 6 4 3 2 3 2 3 6 11 12 20 9 11 12 13
Wind_Direction
157 142 115 121 111 93 78 76 81 82 74 69 65 65 64 64 63 55 63 64 68 67 72 70 81 85 74 71 80 73 78 83 87 92 94 89 82 78 81 90 91 90 91
144 126 134 126 112 97 90 88 81 75 78 71 65 59 59 59 60 55 57 61 61 64 58 68 61 64 77 76 75 80 71 81 89 92 90 87 79 74 85 85 88 91 97
135 128 123 127 119 107 104 92 84 82 80 81 74 67 61 57 58 56 57 59 64 64 59 55 57 57 63 70 76 76 78 78 91 92 87 85 79 85 91 80 83 85 100
134 125 126 127 119 113 109 101 99 91 86 84 83 71 69 64 61 61 57 57 59 64 61 57 54 52 52 56 57 81 66 89 87 94 82 66 92 97 97 89 85 94 96
132 127 127 125 121 119 110 105 103 102 94 87 81 75 69 67 64 62 60 60 60 63 62 59 54 52 52 80 72 94 94 83 89 92 83 71 82 105 106 100 97 97 111
135 130 127 125 122 117 110 104 102 100 95 88 84 78 70 68 66 64 60 57 60 58 64 58 57 51 49 58 71 95 102 91 93 97 86 78 66 70 124 110 87 87 97
141 136 130 129 125 118 112 106 106 104 96 90 87 83 74 68 66 66 62 58 59 57 61 56 59 57 53 61 119 113 103 98 100 94 85 77 55 45 136 115 83 77 89
147 140 138 135 129 125 123 116 112 108 102 96 91 87 80 75 70 67 60 58 57 55 56 54 57 58 55 51 72 109 109 103 99 95 84 80 49 46 62 62 50 10 334
157 150 146 144 134 129 126 118 114 113 108 103 95 88 84 77 73 66 58 54 52 53 52 54 54 61 59 54 60 110 119 115 107 99 88 66 40 43 48 48 55 53 49
164 157 154 151 144 137 130 120 114 110 107 103 98 100 100 93 84 70 62 54 55 54 51 50 50 52 61 55 67 104 114 123 110 103 88 48 39 39 44 73 69 51 45
168 164 159 159 151 149 139 127 118 110 110 106 103 104 105 101 97 89 71 62 59 54 51 48 47 52 61 59 66 84 98 94 103 111 79 39 31 36 36 38 79 54 46
172 170 169 167 162 160 152 145 134 119 113 107 103 100 96 93 89 85 77 70 61 56 55 52 49 49 51 49 52 59 66 77 81 96 67 38 29 28 26 26 36 57 67
176 175 175 175 174 175 162 150 137 125 116 108 99 93 92 90 86 77 71 65 60 58 54 48 47 45 46 44 44 46 51 55 56 57 59 41 30 25 24 25 22 26 35
178 176 174 176 172 168 162 151 143 135 125 114 101 93 87 83 78 70 64 59 56 53 50 45 44 45 47 45 44 45 39 42 31 27 37 43 34 32 30 32 26 30 27
180 177 174 173 173 168 164 155 150 141 133 121 106 93 83 81 77 70 65 58 55 48 46 42 42 39 38 39 38 42 38 38 33 28 34 46 42 44 40 36 33 29 32
183 179 175 173 173 169 166 159 152 144 132 122 105 87 79 74 72 69 66 58 52 46 44 41 39 37 36 35 35 39 33 37 48 46 51 65 58 53 52 53 53 50 48
185 179 175 174 173 171 166 160 155 149 139 129 114 101 93 84 73 66 63 55 50 45 41 39 38 35 35 36 43 29 33 54 66 69 71 73 73 66 52 59 52 47 47
182 180 174 174 171 169 164 157 154 148 141 134 123 111 102 88 72 63 57 55 46 40 42 38 33 32 30 28 35 30 58 77 80 77 79 71 65 68 66 39 45 41 39
184 180 176 175 170 165 160 155 152 147 143 140 129 120 113 97 71 64 62 58 50 42 37 36 35 31 21 20 28 34 63 69 77 73 77 61 57 49 43 39 36 31 28
181 181 177 173 168 164 157 151 148 146 143 141 134 128 125 105 82 76 75 72 63 57 51 48 46 38 23 11 18 58 75 98 71 61 71 52 52 39 36 31 24 23 15
178 178 178 171 169 165 160 155 152 152 148 144 141 137 130 109 88 82 77 77 69 60 57 53 59 54 34 22 24 40 54 117 27 39 61 34 34 26 28 25 20 14 12
173 178 179 175 171 173 170 164 162 156 151 145 140 138 130 113 97 75 71 72 63 60 56 49 51 58 48 37 38 30 8 356 358 6 19 20 14 16 15 12 11 10 13
172 172 176 177 174 172 171 169 155 149 143 145 152 151 138 117 92 81 78 55 45 44 46 42 40 45 50 47 50 57 22 359 329 336 340 351 351 357 354 0 360 5 4
173 173 178 177 174 173 174 171 167 163 161 171 168 161 148 128 98 87 58 44 42 29 22 28 21 32 40 46 48 28 49 351 12 323 324 340 338 343 346 346 347 358 10
166 169 178 178 175 175 176 178 172 164 163 158 160 162 159 148 138 70 13 1 356 357 359 359 359 8 22 35 38 38 45 314 253 241 303 323 330 336 340 337 347 0 359
165 169 176 176 177 177 177 178 177 171 163 162 166 168 171 184 188 227 300 321 332 333 336 343 343 336 332 326 317 301 266 241 210 244 259 285 289 311 320 331 335 347 351